Greenville, AL

3:07 AM CST on January 23, 2018 (GMT -0600)
Greenville Municipal

Weather History for KPRN - July, 2013

Change the Weather History Date:

Sunday, July 28, 2013

  Actual Average Record
Temperature  
Mean Temperature 80 °F -  
Max Temperature 87 °F 92 °F 100 °F (1952)
Min Temperature 72 °F 70 °F 66 °F (1944)
Cooling Degree Days 14    
Growing Degree Days 30 (Base 50)    
Moisture  
Dew Point 73 °F    
Average Humidity 84    
Maximum Humidity 100    
Minimum Humidity 63    
Precipitation  
Precipitation 0.07 in - - ()
Sea Level Pressure  
Sea Level Pressure 29.96 in    
Wind  
Wind Speed 2 mph (ESE)    
Max Wind Speed 8 mph    
Max Gust Speed -    
Visibility 8 miles    
Events Rain    
Averages and records for this station are not official NWS values.
T = Trace of Precipitation, MM = Missing Value Source: NWS Daily Summary

Daily Weather History Graph

Daily Weather History Graph

Search for Another Location

Airport or City:

Trip Planner

Search our weather history database for the weather conditions in past years. The results will help you decide how hot, cold, wet, or windy it might be!

Date:

Astronomy

Jul. 28, 2013 Rise Set
Actual Time 5:59 AM CDT 7:45 PM CDT
Civil Twilight 5:32 AM CDT 8:12 PM CDT
Nautical Twilight 5:00 AM CDT 8:44 PM CDT
Astronomical Twilight 4:26 AM CDT 9:18 PM CDT
Moon 11:36 PM CDT (7/28) 12:13 PM CDT (7/28)
Length of Visible Light 14h 39m
Length of Day
13h 46m
Waning Gibbous, 60% of the Moon is Illuminated
Jul 28
Waning Gibbous
Jul 29
Last Quarter
Aug 6
New
Aug 14
First Quarter
Aug 20
Full

Hourly Weather History & Observations

Time (CDT) Temp. Heat Index Dew Point Humidity Pressure Visibility Wind Dir Wind Speed Gust Speed Precip Events Conditions
12:56 AM 72.0 °F - 70.0 °F 93% 29.93 in 6.0 mi Calm Calm - N/A   Overcast
1:56 AM 72.0 °F - 70.0 °F 93% 29.91 in 6.0 mi Calm Calm - N/A   Overcast
2:56 AM 72.0 °F - 70.0 °F 93% 29.92 in 6.0 mi Calm Calm - N/A   Overcast
3:39 AM 73.4 °F - 71.6 °F 94% 29.94 in 5.0 mi Calm Calm - N/A   Overcast
3:56 AM 73.0 °F - 71.1 °F 93% 29.92 in 6.0 mi Calm Calm - N/A   Overcast
5:56 AM 73.0 °F - 71.1 °F 93% 29.94 in 5.0 mi Calm Calm - N/A   Overcast
6:54 AM 73.4 °F - 71.6 °F 94% 29.97 in 4.0 mi North - - N/A   Overcast
6:56 AM 73.9 °F - 71.1 °F 91% 29.96 in 4.0 mi North - - N/A   Overcast
7:17 AM 73.4 °F - 71.6 °F 94% 29.98 in 4.0 mi Calm Calm - N/A   Overcast
7:37 AM 73.4 °F - 71.6 °F 94% 29.98 in 2.0 mi ESE 3.5 mph - 0.02 in Rain Light Rain
7:48 AM 73.4 °F - 73.4 °F 100% 29.98 in 4.0 mi ESE 4.6 mph - 0.02 in   Overcast
7:56 AM - - - N/A% - 3.0 mi SSE 3.5 mph - N/A   Unknown
7:59 AM 75.2 °F - 73.4 °F 94% 29.98 in 2.5 mi SSE 5.8 mph - 0.00 in Rain Rain
8:22 AM 75.2 °F - 73.4 °F 94% 29.97 in 5.0 mi ESE 5.8 mph - 0.02 in   Overcast
8:56 AM 78.1 °F - 73.9 °F 87% 29.96 in 10.0 mi SSE 3.5 mph - 0.02 in   Clear
9:04 AM 78.8 °F - 73.4 °F 83% 29.96 in 10.0 mi SE 6.9 mph - N/A   Partly Cloudy
9:56 AM 80.1 °F 84.2 °F 73.0 °F 79% 29.96 in 10.0 mi Variable 3.5 mph - N/A   Overcast
10:47 AM 82.4 °F 88.2 °F 73.4 °F 74% 29.98 in 10.0 mi ESE 4.6 mph - N/A   Mostly Cloudy
11:56 AM 84.0 °F 90.2 °F 73.0 °F 69% 29.96 in 10.0 mi ESE 5.8 mph - N/A   Scattered Clouds
12:48 PM 84.2 °F 89.6 °F 71.6 °F 66% 29.98 in 10.0 mi ESE 4.6 mph - N/A   Overcast
12:56 PM 84.0 °F 89.6 °F 72.0 °F 67% 29.97 in 10.0 mi ENE 3.5 mph - N/A   Overcast
1:56 PM 87.1 °F 94.5 °F 73.0 °F 63% 29.95 in 10.0 mi East 6.9 mph - N/A   Mostly Cloudy
2:17 PM 84.2 °F 90.9 °F 73.4 °F 70% 29.96 in 10.0 mi ESE 6.9 mph - N/A   Overcast
2:56 PM 84.9 °F 91.4 °F 73.0 °F 67% 29.94 in 10.0 mi NE 3.5 mph - N/A   Mostly Cloudy
3:17 PM 82.4 °F 89.5 °F 75.2 °F 79% 29.96 in 8.0 mi NNE 8.1 mph - 0.01 in Rain Light Rain
3:26 PM 78.8 °F - 75.2 °F 89% 29.96 in 6.0 mi NE 5.8 mph - 0.02 in Rain Light Rain
3:56 PM 80.1 °F 85.1 °F 75.0 °F 85% 29.94 in 10.0 mi Calm Calm - 0.05 in   Overcast
4:56 PM 86.0 °F 95.1 °F 75.0 °F 70% 29.94 in 10.0 mi East 6.9 mph - N/A   Partly Cloudy
5:56 PM 84.9 °F 91.4 °F 73.0 °F 67% 29.94 in 10.0 mi NNE 4.6 mph - N/A   Clear
6:56 PM 84.0 °F 91.2 °F 73.9 °F 72% 29.95 in 10.0 mi East 3.5 mph - N/A   Clear
7:56 PM 81.0 °F 86.2 °F 73.9 °F 79% 29.97 in 10.0 mi Calm Calm - N/A   Clear
8:56 PM 77.0 °F - 73.0 °F 88% 29.99 in 10.0 mi SE 3.5 mph - N/A   Clear
9:56 PM 75.9 °F - 73.0 °F 91% 30.01 in 10.0 mi ESE 3.5 mph - N/A   Clear
10:56 PM 75.0 °F - 73.0 °F 94% 30.01 in 10.0 mi SSE 3.5 mph - N/A   Clear
11:56 PM 75.0 °F - 73.0 °F 94% 30.01 in 9.0 mi Calm Calm - N/A   Clear